Powrót do katalogu

STARLINK-33798

AktywnyŁącznośćVLEO
NORAD 63449·PAYLOAD·🇺🇸 United States

Wystrzelony Apr 4, 2025 z Vandenberg Space Force Base

Loading…

Następne Przeloty (najbliższe 24 godziny)

TLE

ŚwieżeSource: CelesTrak SupGP

Epoka: Sep 15, 2026, 03:00 UTC

1 63449C 25069S   26258.12548611  .00070916  00000+0  20951-2 0  2588
2 63449  53.1591 335.0783 0001122 100.0519 249.6529 15.34357799    14

Śledź STARLINK-33798 w czasie rzeczywistym z AllMySat

Download on the App Store